Tracking 25612 objects as of 20-May-2022
HD Live streaming from Space Station
objects crossing your sky now

FLOCK 4S 38

Track FLOCK 4S 38 now!
10-day predictions
FLOCK 4S 38 is classified as:


NORAD ID: 47512
Int'l Code: 2021-006DD
Perigee: 521.0 km
Apogee: 532.8 km
Inclination: 97.5 °
Period: 95.0 minutes
Semi major axis: 6897 km
RCS: Unknown
Launch date: January 24, 2021
Source: United States (US)
Launch site: AIR FORCE EASTERN TEST RANGE (AFETR)
aabbcc
Your satellite tracking list
Your tracking list is empty




NASA's NSSDC Master Catalog

Two Line Element Set (TLE):
1 47512U 21006DD  22139.42609248  .00013464  00000-0  71532-3 0  9999
2 47512  97.4501 199.2048 0008575  42.2199 317.9692 15.15390120 72858
Source of the keplerian elements: AFSPC